Tracking 35275 objects as of 8-Sep-2026
HD Live streaming from Space Station
objects crossing your sky now

COSMOS 2306 DEB


COSMOS 2306 DEB is no longer on orbit


NORAD ID: 26584
Int'l Code: 1995-008N
Launch date: March 2, 1995
Source: Commonwealth of Independent States (former USSR) (CIS)
Launch site: PLESETSK MISSILE AND SPACE COMPLEX (PKMTR)
Decay date: 2000-10-25

Note: This is SATELLITE DEBRIS
Your satellite tracking list
Your tracking list is empty




NASA's NSSDC Master Catalog

Two Line Element Set (TLE):
1 26584U 95008N   00299.34795850  .13577387  68530-5  40437-2 0  9996
2 26584 065.8045 238.6627 0010002 268.9050 091.4810 16.26599784    80
Source of the keplerian elements: AFSPC